• In Romania
  • List of Countries
  • For 7 days
  • Water Temperature
  • Satellite Maps
  • Weather Map
  • Weather Widgets
  • user-avatar
    Login

    Hourly Weather Shusha

    Today, 20 August, Sunday

    Time Temperature Precipitation Wind Pressure Humidity
    00:00 +19°C° 0 mm 2 mps 662 mmHg 47%
    01:00 +18°C° 0 mm 2 mps 662 mmHg 48%
    02:00 +18°C° 0 mm 2 mps 662 mmHg 48%
    03:00 +18°C° 0 mm 2 mps 662 mmHg 48%
    04:00 +18°C° 0 mm 2 mps 662 mmHg 48%
    05:00 +18°C° 0 mm 2 mps 662 mmHg 47%
    06:00 +18°C° 0 mm 2 mps 662 mmHg 47%
    07:00 +20°C° 0 mm 2 mps 663 mmHg 43%
    08:00 +23°C° 0 mm 2 mps 663 mmHg 38%
    09:00 +25°C° 0 mm 2 mps 664 mmHg 34%
    10:00 +27°C° 0 mm 2 mps 664 mmHg 32%
    11:00 +28°C° 0 mm 3 mps 663 mmHg 29%
    12:00 +29°C° 0 mm 3 mps 663 mmHg 27%
    13:00 +30°C° 0 mm 3 mps 663 mmHg 26%
    14:00 +30°C° 0 mm 4 mps 663 mmHg 26%
    15:00 +30°C° 0 mm 4 mps 662 mmHg 26%
    16:00 +29°C° 0 mm 3 mps 662 mmHg 27%
    17:00 +29°C° 0 mm 3 mps 662 mmHg 29%
    18:00 +28°C° 0 mm 3 mps 662 mmHg 31%
    19:00 +26°C° 0 mm 2 mps 661 mmHg 35%
    20:00 +24°C° 0 mm 2 mps 661 mmHg 39%
    21:00 +21°C° 0 mm 2 mps 661 mmHg 44%
    22:00 +20°C° 0 mm 2 mps 661 mmHg 44%
    23:00 +20°C° 0 mm 2 mps 661 mmHg 45%

    Tomorrow, 21 August, Monday

    Time Temperature Precipitation Wind Pressure Humidity
    00:00 +19°C° 0 mm 2 mps 661 mmHg 46%
    01:00 +19°C° 0 mm 2 mps 661 mmHg 45%
    02:00 +19°C° 0 mm 2 mps 660 mmHg 43%
    03:00 +18°C° 0 mm 2 mps 660 mmHg 42%
    04:00 +19°C° 0 mm 2 mps 660 mmHg 42%
    05:00 +19°C° 0 mm 2 mps 660 mmHg 41%
    06:00 +19°C° 0 mm 2 mps 661 mmHg 41%
    07:00 +21°C° 0 mm 2 mps 661 mmHg 38%
    08:00 +24°C° 0 mm 2 mps 661 mmHg 35%
    09:00 +26°C° 0 mm 2 mps 662 mmHg 32%
    10:00 +27°C° 0 mm 2 mps 662 mmHg 30%
    11:00 +29°C° 0 mm 3 mps 662 mmHg 28%
    12:00 +30°C° 0 mm 3 mps 662 mmHg 25%
    13:00 +30°C° 0 mm 3 mps 661 mmHg 25%
    14:00 +31°C° 0 mm 3 mps 661 mmHg 25%
    15:00 +31°C° 0 mm 3 mps 661 mmHg 25%
    16:00 +30°C° 0 mm 3 mps 660 mmHg 27%
    17:00 +29°C° 0 mm 3 mps 660 mmHg 30%
    18:00 +28°C° 0 mm 2 mps 660 mmHg 33%
    19:00 +26°C° 0 mm 2 mps 660 mmHg 36%
    20:00 +25°C° 0 mm 2 mps 660 mmHg 40%
    21:00 +23°C° 0 mm 2 mps 659 mmHg 43%
    22:00 +21°C° 0 mm 2 mps 659 mmHg 45%
    23:00 +21°C° 0 mm 2 mps 659 mmHg 47%

    Day after tomorrow, 22 August, Tuesday

    Time Temperature Precipitation Wind Pressure Humidity
    00:00 +20°C° 0 mm 2 mps 659 mmHg 48%
    01:00 +20°C° 0 mm 2 mps 659 mmHg 48%
    02:00 +20°C° 0 mm 2 mps 659 mmHg 49%
    03:00 +20°C° 0 mm 1 mps 659 mmHg 49%
    04:00 +20°C° 0 mm 1 mps 659 mmHg 48%
    05:00 +20°C° 0 mm 1 mps 659 mmHg 48%
    06:00 +20°C° 0 mm 1 mps 659 mmHg 48%
    07:00 +23°C° 0 mm 2 mps 660 mmHg 42%
    08:00 +25°C° 0 mm 2 mps 660 mmHg 36%
    09:00 +27°C° 0 mm 2 mps 661 mmHg 30%
    10:00 +29°C° 0 mm 2 mps 661 mmHg 27%
    11:00 +30°C° 0 mm 3 mps 661 mmHg 25%
    12:00 +31°C° 0 mm 3 mps 661 mmHg 23%
    13:00 +31°C° 0 mm 3 mps 660 mmHg 23%
    14:00 +33°C° 0 mm 3 mps 660 mmHg 23%
    15:00 +33°C° 0 mm 3 mps 659 mmHg 23%
    16:00 +31°C° 0 mm 3 mps 659 mmHg 25%
    17:00 +30°C° 0 mm 3 mps 659 mmHg 28%
    18:00 +29°C° 0 mm 2 mps 659 mmHg 31%
    19:00 +27°C° 0 mm 2 mps 659 mmHg 34%
    20:00 +25°C° 0 mm 2 mps 659 mmHg 38%
    21:00 +23°C° 0 mm 2 mps 659 mmHg 42%
    22:00 +21°C° 0 mm 2 mps 659 mmHg 44%
    23:00 +21°C° 0 mm 2 mps 659 mmHg 46%

    23 August, Wednesday

    Time Temperature Precipitation Wind Pressure Humidity
    00:00 +20°C° 0 mm 2 mps 659 mmHg 47%
    01:00 +20°C° 0 mm 2 mps 659 mmHg 47%
    02:00 +20°C° 0 mm 2 mps 659 mmHg 47%
    03:00 +19°C° 0 mm 2 mps 659 mmHg 47%
    04:00 +19°C° 0 mm 2 mps 659 mmHg 46%
    05:00 +20°C° 0 mm 1 mps 659 mmHg 46%
    06:00 +21°C° 0 mm 1 mps 660 mmHg 46%
    07:00 +23°C° 0 mm 2 mps 660 mmHg 41%
    08:00 +25°C° 0 mm 2 mps 661 mmHg 36%
    09:00 +27°C° 0 mm 2 mps 662 mmHg 31%
    10:00 +28°C° 0 mm 3 mps 662 mmHg 29%
    11:00 +29°C° 0 mm 3 mps 662 mmHg 27%
    12:00 +31°C° 0 mm 3 mps 662 mmHg 25%
    13:00 +32°C° 0 mm 4 mps 662 mmHg 24%
    14:00 +33°C° 0 mm 4 mps 661 mmHg 23%
    15:00 +33°C° 0 mm 4 mps 661 mmHg 23%
    16:00 +32°C° 0 mm 4 mps 661 mmHg 26%
    17:00 +30°C° 0 mm 4 mps 661 mmHg 28%
    18:00 +28°C° 0 mm 4 mps 661 mmHg 31%
    19:00 +26°C° 0 mm 3 mps 661 mmHg 35%
    20:00 +24°C° 0 mm 2 mps 661 mmHg 40%
    21:00 +22°C° 0 mm 1 mps 661 mmHg 44%
    22:00 +22°C° 0 mm 1 mps 661 mmHg 45%
    23:00 +20°C° 0 mm 2 mps 661 mmHg 46%

    24 August, Thursday

    Time Temperature Precipitation Wind Pressure Humidity
    00:00 +20°C° 0 mm 2 mps 661 mmHg 46%
    01:00 +19°C° 0 mm 2 mps 661 mmHg 47%
    02:00 +19°C° 0 mm 2 mps 661 mmHg 47%
    03:00 +19°C° 0 mm 2 mps 661 mmHg 48%
    04:00 +19°C° 0 mm 2 mps 662 mmHg 47%
    05:00 +20°C° 0 mm 1 mps 662 mmHg 46%
    06:00 +20°C° 0 mm 1 mps 662 mmHg 46%
    07:00 +21°C° 0 mm 2 mps 663 mmHg 39%
    08:00 +25°C° 0 mm 2 mps 664 mmHg 33%
    09:00 +27°C° 0 mm 2 mps 664 mmHg 26%
    10:00 +28°C° 0 mm 3 mps 664 mmHg 25%
    11:00 +29°C° 0 mm 3 mps 664 mmHg 23%
    12:00 +30°C° 0 mm 4 mps 664 mmHg 21%
    13:00 +32°C° 0 mm 4 mps 664 mmHg 21%
    14:00 +32°C° 0 mm 4 mps 664 mmHg 21%
    15:00 +32°C° 0 mm 5 mps 664 mmHg 21%
    16:00 +30°C° 0 mm 4 mps 663 mmHg 23%
    17:00 +28°C° 0 mm 4 mps 663 mmHg 25%
    18:00 +27°C° 0 mm 4 mps 663 mmHg 27%
    19:00 +25°C° 0 mm 3 mps 663 mmHg 30%
    20:00 +22°C° 0 mm 3 mps 663 mmHg 33%
    21:00 +20°C° 0 mm 2 mps 663 mmHg 37%
    22:00 +20°C° 0 mm 2 mps 663 mmHg 38%
    23:00 +19°C° 0 mm 2 mps 663 mmHg 39%

    25 August, Friday

    Time Temperature Precipitation Wind Pressure Humidity
    00:00 +19°C° 0 mm 2 mps 663 mmHg 40%
    01:00 +18°C° 0 mm 2 mps 663 mmHg 40%
    02:00 +18°C° 0 mm 2 mps 663 mmHg 41%
    03:00 +19°C° 0 mm 1 mps 663 mmHg 41%
    04:00 +19°C° 0 mm 1 mps 663 mmHg 41%
    05:00 +19°C° 0 mm 1 mps 663 mmHg 40%
    06:00 +19°C° 0 mm 1 mps 663 mmHg 39%
    07:00 +20°C° 0 mm 2 mps 664 mmHg 33%
    08:00 +23°C° 0 mm 2 mps 665 mmHg 27%
    09:00 +26°C° 0 mm 2 mps 665 mmHg 21%
    10:00 +27°C° 0 mm 3 mps 665 mmHg 19%
    11:00 +28°C° 0 mm 3 mps 665 mmHg 18%
    12:00 +29°C° 0 mm 4 mps 665 mmHg 16%
    13:00 +30°C° 0 mm 4 mps 664 mmHg 17%
    14:00 +30°C° 0 mm 4 mps 664 mmHg 17%
    15:00 +30°C° 0 mm 4 mps 664 mmHg 18%
    16:00 +29°C° 0 mm 4 mps 663 mmHg 21%
    17:00 +27°C° 0 mm 4 mps 663 mmHg 23%
    18:00 +26°C° 0 mm 4 mps 663 mmHg 26%
    19:00 +24°C° 0 mm 3 mps 663 mmHg 32%
    20:00 +21°C° 0 mm 3 mps 663 mmHg 38%
    21:00 +19°C° 0 mm 2 mps 663 mmHg 44%
    22:00 +19°C° 0 mm 2 mps 662 mmHg 47%
    23:00 +18°C° 0 mm 2 mps 662 mmHg 49%
    Show more